M0ADS Weather Reports


time (UTC)temp
C
wind
direction
speed
KPH
gust
KPH
rain 1hr
cm
rain 24hr
cm
rain mn
cm
humidity
%
barometer
mb
20260510234237 7 244 0.0 14.5 0.00 0.00 0.00 78 1011.9
20260510232736 7 269 1.6 12.9 0.00 0.00 0.00 77 1012.2
20260510231236 7 321 1.6 12.9 0.00 0.00 0.00 77 1012.2
20260510225735 7 276 1.6 9.7 0.00 0.00 0.00 75 1012.6
20260510224236 7 288 1.6 9.7 0.00 0.00 0.00 72 1012.7
20260510222736 7 267 0.0 9.7 0.00 0.00 0.00 69 1012.9
20260510221236 7 273 1.6 12.9 0.00 0.00 0.00 67 1013.0
20260510215736 8 274 0.0 11.3 0.00 0.00 0.00 65 1013.3
20260510214236 8 261 1.6 12.9 0.00 0.00 0.00 63 1013.6
20260510212733 8 266 0.0 4.8 0.00 0.00 0.00 63 1013.9
20260510211233 9 266 0.0 3.2 0.00 0.00 0.00 64 1014.1
20260510205734 9 266 0.0 6.4 0.00 0.00 0.00 62 1014.1
20260510204234 9 261 0.0 3.2 0.00 0.00 0.00 63 1014.3
20260510202733 9 263 0.0 9.7 0.00 0.00 0.00 60 1014.5
20260510201233 9 121 0.0 0.0 0.00 0.00 0.00 61 1014.4
20260510195733 10 121 0.0 0.0 0.00 0.00 0.00 60 1014.6
20260510194233 10 121 0.0 0.0 0.00 0.00 0.00 59 1014.5
20260510192731 10 121 0.0 1.6 0.00 0.00 0.00 58 1014.7
20260510191229 10 121 0.0 0.0 0.00 0.00 0.00 58 1014.6
20260510185729 10 121 0.0 3.2 0.00 0.00 0.00 56 1014.7
20260510184229 11 121 0.0 4.8 0.00 0.03 0.00 54 1014.8
20260510182729 11 82 0.0 0.0 0.00 0.03 0.00 52 1015.0
20260510181229 11 82 0.0 3.2 0.00 0.03 0.00 52 1015.2
20260510175728 12 101 0.0 0.0 0.00 0.05 0.00 50 1015.3
20260510174227 11 101 0.0 1.6 0.00 0.08 0.00 53 1015.6
20260510172727 11 103 0.0 3.2 0.00 0.10 0.00 53 1015.8
20260510171227 11 92 0.0 4.8 0.00 0.10 0.00 53 1015.9
20260510165725 11 46 0.0 8.0 0.00 0.10 0.00 51 1016.0
20260510164223 12 130 0.0 3.2 0.00 0.10 0.00 52 1016.2
20260510162722 11 130 0.0 9.7 0.00 0.10 0.00 51 1016.4
20260510161223 12 56 0.0 4.8 0.00 0.10 0.00 50 1016.6
20260510155723 12 136 1.6 8.0 0.00 0.10 0.00 51 1016.8
20260510154223 13 165 0.0 6.4 0.00 0.10 0.00 50 1017.0
20260510152721 11 165 0.0 6.4 0.00 0.10 0.00 52 1017.1
20260510151220 12 153 0.0 3.2 0.00 0.10 0.00 51 1017.3
20260510145718 12 138 0.0 4.8 0.00 0.10 0.00 50 1017.5
20260510144216 11 146 0.0 12.9 0.00 0.10 0.00 51 1017.7
20260510142716 12 125 1.6 12.9 0.00 0.10 0.00 50 1017.8
20260510141216 12 135 1.6 11.3 0.00 0.10 0.00 51 1018.1
20260510135715 12 254 1.6 12.9 0.00 0.10 0.00 50 1018.1
20260510134212 13 25 1.6 6.4 0.00 0.10 0.00 47 1018.3
20260510132713 12 167 1.6 8.0 0.00 0.10 0.00 51 1018.5
20260510131212 13 118 1.6 9.7 0.00 0.10 0.00 49 1018.6
20260510125711 13 144 1.6 11.3 0.00 0.10 0.00 52 1018.7
20260510124210 13 171 1.6 9.7 0.00 0.10 0.00 50 1018.9
20260510122716 12 0 1.6 14.5 0.00 0.10 0.00 50 1019.1
20260510121210 13 201 1.6 11.3 0.00 0.10 0.00 51 1019.1
20260510115708 13 51 1.6 8.0 0.00 0.10 0.00 54 1019.4
20260510114206 12 147 0.0 14.5 0.00 0.10 0.00 56 1019.4
20260510112706 12 164 1.6 11.3 0.00 0.10 0.00 56 1019.6
20260510111206 12 73 1.6 12.9 0.00 0.10 0.00 57 1019.8
20260510105706 11 5 1.6 11.3 0.00 0.10 0.00 57 1020.0
20260510104205 12 128 1.6 16.1 0.00 0.10 0.00 55 1020.2
20260510102706 12 355 1.6 12.9 0.00 0.10 0.00 61 1020.4
20260510101205 12 349 1.6 16.1 0.00 0.10 0.00 62 1020.5
20260510095703 10 117 1.6 12.9 0.00 0.10 0.00 65 1020.7
20260510094203 10 134 1.6 12.9 0.00 0.10 0.00 67 1020.9
20260510092704 10 141 1.6 12.9 0.00 0.10 0.00 69 1021.0
20260510091200 10 115 1.6 12.9 0.00 0.10 0.00 66 1021.0
20260510085659 10 76 1.6 12.9 0.00 0.10 0.00 68 1021.1
20260510084159 10 165 3.2 14.5 0.00 0.10 0.00 67 1021.2
20260510082659 10 146 1.6 11.3 0.00 0.10 0.00 70 1021.2
20260510081200 8 108 3.2 14.5 0.00 0.10 0.00 73 1021.2
20260510075657 8 152 1.6 12.9 0.00 0.10 0.00 74 1021.2
20260510074157 8 44 1.6 9.7 0.00 0.10 0.00 78 1021.2
20260510072657 8 150 1.6 9.7 0.00 0.10 0.00 78 1021.3
20260510071157 7 151 1.6 6.4 0.00 0.10 0.00 78 1021.2
20260510065657 8 225 0.0 11.3 0.00 0.10 0.00 79 1021.2
20260510064156 7 161 1.6 14.5 0.00 0.10 0.00 81 1021.3
20260510062656 7 5 1.6 9.7 0.00 0.10 0.00 83 1021.2
20260510061155 6 156 0.0 6.4 0.00 0.10 0.00 86 1021.2
20260510055653 6 141 0.0 6.4 0.00 0.10 0.00 86 1021.2
20260510054153 6 290 0.0 3.2 0.00 0.10 0.00 87 1021.1
20260510052653 6 134 0.0 6.4 0.00 0.13 0.00 88 1021.1
20260510051152 5 109 0.0 4.8 0.00 0.13 0.00 88 1021.2
20260510045652 6 98 0.0 6.4 0.00 0.13 0.00 88 1021.2
20260510044153 5 32 0.0 8.0 0.00 0.15 0.00 88 1021.3
20260510042652 6 138 0.0 4.8 0.00 0.15 0.00 89 1021.3
20260510041153 6 123 0.0 6.4 0.00 0.15 0.00 89 1021.3
20260510035653 5 42 0.0 3.2 0.00 0.15 0.00 89 1021.4
20260510034152 6 130 0.0 3.2 0.00 0.15 0.00 88 1021.3
20260510032652 6 133 0.0 6.4 0.00 0.15 0.00 88 1021.5
20260510031152 6 178 0.0 4.8 0.00 0.15 0.00 88 1021.7
20260510025652 6 223 0.0 4.8 0.00 0.15 0.00 88 1021.7
20260510024152 6 192 0.0 9.7 0.00 0.15 0.00 88 1021.7
20260510022652 6 135 0.0 8.0 0.00 0.15 0.00 88 1021.6
20260510021151 6 146 0.0 3.2 0.00 0.15 0.00 89 1021.7
20260510015650 6 128 0.0 4.8 0.00 0.15 0.00 89 1021.6
20260510014150 6 333 0.0 4.8 0.00 0.15 0.00 89 1021.5
20260510012650 6 32 0.0 6.4 0.00 0.15 0.00 89 1021.6
20260510011148 6 132 0.0 8.0 0.00 0.15 0.00 89 1021.6
20260510005648 6 104 0.0 6.4 0.00 0.15 0.00 89 1021.6
20260510004148 6 184 0.0 14.5 0.00 0.15 0.00 89 1021.6
20260510002646 6 205 0.0 3.2 0.00 0.15 0.00 89 1021.7
20260510001146 6 134 0.0 12.9 0.00 0.15 0.00 89 1021.8
20260509235645 6 118 0.0 3.2 0.00 0.15 0.00 90 1021.8